Flag for U.S.A. Weather past 2 weeks in Chula Vista, California, U.S.A.

Now
72 °F

Clear.


Feels Like: 73 °F
Forecast: 68 / 83 °F
Wind: 3 mph from Northwest

Location: Brown Field Municipal Airport

Current Time: Jul 28, 2014 at 10:31:41 PM

Latest Report: Jul 28, 2014 at 9:53 PM


Visibility: 10 mi

Pressure: 30.03 "Hg

Humidity: 78%

Dew point: 65 °F

Location of Chula VistaLocation

Historic Weather in Chula Vista — Graph

°F

Chula Vista temperature yesterday

Maximum temperature yesterday: 85 °F (at 2:53 PM)
Minimum temperature yesterday: 66 °F (at 3:53 AM)
Average temperature yesterday: 73 °F

Past Weeks' High & Low Weather Summary

 TemperatureHumidityPressure
High85 °F (Jul 27, 2:53 PM)97% (Jul 24, 6:04 AM)30.06 "Hg (Jul 24, 6:04 AM)
Low62 °F (Jul 18, 4:53 AM)30% (Jul 28, 1:53 PM)29.75 "Hg (Jul 24, 5:53 PM)
Average71 °F75%29.96 "Hg
* Reported Jul 13 8:53 PM — Jul 28 8:53 PM, Chula Vista, Weather by CustomWeather, © 2014

Note: Actual official high and low records may vary slightly from our data, if they occured in-between our weather recording intervals... More about our weather records

Advertising

Chula Vista weather history for previous 24 hours

 ConditionsComfort  
Time TempWeatherWind HumidityBarometerVisibility
8:53 PM
Jul 28
73 °FClear.6 mph76%30.01 "Hg10 mi
7:53 PM75 °FSunny.5 mph58%30.00 "Hg10 mi
6:53 PM78 °FSunny.5 mph54%29.98 "Hg10 mi
5:53 PM80 °FSunny.7 mph47%29.97 "Hg10 mi
4:53 PM83 °FSunny.12 mph46%29.97 "Hg10 mi
3:53 PM83 °FSunny.12 mph41%29.98 "Hg10 mi
2:53 PM84 °FSunny.10 mph32%30.00 "Hg10 mi
1:53 PM85 °FSunny.8 mph30%30.01 "Hg10 mi
12:53 PM84 °FSunny.13 mph40%30.03 "Hg10 mi
11:53 AM85 °FSunny.9 mph36%30.04 "Hg10 mi
10:53 AM82 °FSunny.7 mph51%30.05 "Hg10 mi
9:53 AM79 °FSunny.6 mph62%30.06 "Hg10 mi
8:53 AM78 °FSunny.3 mph64%30.05 "Hg10 mi
7:53 AM73 °FPassing clouds.6 mph79%30.04 "Hg10 mi
6:53 AM69 °FPassing clouds.No wind87%30.03 "Hg9 mi
5:53 AM69 °FClear.No wind87%30.02 "Hg9 mi
4:53 AM69 °FLow clouds.No wind90%30.01 "Hg9 mi
3:53 AM69 °FPassing clouds.No wind90%30.01 "Hg9 mi
3:03 AM68 °FPassing clouds.3 mph93%30.03 "Hg9 mi
2:53 AM69 °FPassing clouds.No wind90%30.01 "Hg9 mi
1:53 AM68 °FClear.3 mph93%30.01 "Hg9 mi
12:53 AM69 °FClear.No wind90%30.01 "Hg10 mi
11:53 PM
Jul 27
69 °FClear.No wind90%30.02 "Hg10 mi
10:53 PM70 °FClear.No wind81%30.00 "Hg10 mi
Weather by CustomWeather, © 2014

See weather overviewHow to use our weather pages